Weather in Pokrovo-Vasilyevka

Russia / Tambov Oblast     53°24′06″N   41°01′46″E
temp.,
°C
wind,
m/s
gust,
m/s
humid.,
%
clouds,
%
prec.,
mm/h
press.,
hPa
HPBL,
m
28 february, sun
sun2800:00−12nnw379684 0.0 1013143
03:00−13nnw349651 0.0 101462
06:00−11nnw239695 0.1 101453
09:00−9wnw239590 0.2 1015148
12:00−7nw349293 0.1 1015409
15:00−6nnw359197 0.1 1015503
18:00−6nnw3593100 0.1 1016223
21:00−7nne2296100 0.2 101835
1 march, mon
mon100:00−10n129699 0.0 102021
03:00−11n2297100 0.1 102221
06:00−11nnw229696 0.0 102321
09:00−11nnw229689 0.1 102523
12:00−7w229133 0.0 1025187
15:00−6wsw359435 0.0 1025227
18:00−5wsw4109666 0.0 1023273
21:00−4wsw6129482 0.0 1021375
2 march, tue
tue200:00−3wsw71395100 0.1 1018447
03:00−1wsw81496100 0.3 1016549
06:00+1w71392100 0.1 1013756
09:00+1w71398100 0.1 1011638
12:00+1wnw712100100 0.1 1009614
15:00+1wnw510100100 0.2 1009537
18:00−1nw41092100 0.1 1008326
21:00−2wnw3794100 0.1 1008169
3 march, wed
wed300:00−3nw489599 0.1 1009191
03:00−4nw499490 0.1 1010184
06:00−4nw4109489 0.1 1010241
09:00−3nw6119488 0.1 1012535
12:00−2nnw7109095 0.1 1014906
15:00−3nw7118797 0.3 1015777
18:00−4nw5108598 0.0 1016612
21:00−8w479264 0.0 1017110
4 march, thu
thu400:00−7wsw499448 0.0 1016168
03:00−5wsw599570 0.0 1013290
06:00−5wsw6129599 0.0 1011325
09:00−4wsw8159297 0.0 1009477
12:00−1wsw9168598 0.0 1006742
15:000wsw9158590 0.0 10041030
18:000w81493100 0.1 1003885
21:00−1w61493100 0.2 1004553